You are not logged in, Click here to log in
漢堡機場 HAM / EDDH 德國 漢堡
ICAO: EDDH Country: 德國 漢堡
Latitude: 53.6304 Longitude: 9.98823
Total Arrivals: 4 Total Departures: 4
Latest Arrival: FS16 (LEPA-EDDH)CHU. CHUHAO Latest Departure: FS17 (EDDH-LKPR)CHU. CHUHAO
Scenery:
METAR : EDDH 190320Z 23018G30KT 7000 -RA FEW013 BKN016 06/04 Q1006 TEMPO BKN012

漢堡機場 HAM

You are accessing this site from IP address 35.175.113.29. Virtual Airline. CMS by phpVMS.Website designed by Zumeweb and edited by Theo Bearman.
There is 0 User(s) Online: | and 11 Guest(s) Online.
All information on this site is for fight simulation purposes only. This site is for flight logging for pilots of Virtual Airline&模擬飛行論壇 FlySim only.